Simultaneous Nadir Overpasses (SNOs) Predictions

Prediction of SNOs between METOP-B and TERRA Satellite Orbit:

Table of predicted SNOs for the next 14.0 days since TLE Epoch: 7/17/2021
Index Date (METOP-B) Time (METOP-B) Lat,Lon (METOP-B) SZA (METOP-B ) Date (TERRA) Time (TERRA) Lat,Lon (TERRA) SZA (TERRA ) Distance(km) Time Diff (sec)
1 07/17/2021 14:52:05 -81.26,-177.99 117.33 07/17/2021 14:52:10 -81.26,-177.80 117.30 3.29 5
2 07/17/2021 15:42:44 81.27, -10.02 62.76 07/17/2021 15:41:36 81.27, -10.06 62.73 0.66 68
3 07/20/2021 09:35:47 81.25, 80.78 63.14 07/20/2021 09:36:55 81.24, 80.60 63.14 3.28 68
4 07/20/2021 10:26:27 -81.26,-111.51 116.81 07/20/2021 10:26:21 -81.26,-111.46 116.81 0.79 6
5 07/23/2021 05:10:10 81.25, 147.25 63.69 07/23/2021 05:11:06 81.25, 147.26 63.72 0.20 56
6 07/23/2021 06:00:50 -81.26, -45.04 116.26 07/23/2021 06:00:33 -81.25, -45.16 116.28 2.16 17
7 07/26/2021 00:44:34 81.24,-146.68 64.25 07/26/2021 00:45:18 81.24,-146.49 64.29 3.26 44
8 07/26/2021 01:35:13 -81.26, 21.41 115.65 07/26/2021 01:34:44 -81.26, 21.50 115.66 1.40 29
9 07/28/2021 20:18:55 81.25, -79.85 64.94 07/28/2021 20:19:28 81.25, -79.89 64.95 0.78 33



Historial Predications of SNOs between METOP-B and TERRA
